Voltar ao catálogo

STARLINK-30806

AtivoComunicaçõesVLEO
NORAD 58180·PAYLOAD·🇺🇸 United States

Lançado Oct 30, 2023 de Cape Canaveral Space Force Station

Loading…

Próximas Passagens (próximas 24 horas)

TLE

AtualizadoSource: CelesTrak SupGP

Época: Sep 14, 2026, 22:11 UTC

1 58180C 23167F   26257.92479167  .00080484  00000+0  17293-2 0  2572
2 58180  42.9940 145.5429 0016579 216.3362  70.5142 15.43626890    17

Acompanhe STARLINK-30806 em tempo real com AllMySat

Download on the App Store